DW8749 Weather Reports


Display with metric or nautical units.
time (UTC)temp
F
wind
direction
speed
MPH
gust
MPH
rain 1hr
in
rain 24hr
in
rain mn
in
humidity
%
barometer
mb
20260503021514 63 98 0.0 3.0 0.00 0.00 0.00 31 1017.0
20260503021011 63 147 1.0 3.0 0.00 0.00 0.00 32 1017.0
20260503020508 63 71 1.0 3.0 0.00 0.00 0.00 31 1016.9
20260503015506 64 74 0.0 2.0 0.00 0.00 0.00 31 1016.9
20260503015010 64 82 0.0 2.0 0.00 0.00 0.00 30 1016.9
20260503014524 65 109 0.0 4.0 0.00 0.00 0.00 30 1016.8
20260503014008 65 98 0.0 4.0 0.00 0.00 0.00 30 1016.8
20260503013510 66 71 1.0 4.0 0.00 0.00 0.00 30 1016.7
20260503013036 67 80 1.0 3.0 0.00 0.00 0.00 30 1016.7
20260503012506 67 117 0.0 3.0 0.00 0.00 0.00 29 1016.7
20260503012005 67 132 1.0 4.0 0.00 0.00 0.00 29 1016.8
20260503011515 67 137 2.0 4.0 0.00 0.00 0.00 28 1016.8
20260503011007 68 155 2.0 3.0 0.00 0.00 0.00 28 1016.8
20260503010510 68 132 2.0 3.0 0.00 0.00 0.00 27 1016.8
20260503010023 68 160 1.0 3.0 0.00 0.00 0.00 27 1016.9
20260503005510 68 168 2.0 3.0 0.00 0.00 0.00 26 1016.9
20260503005009 68 172 1.0 3.0 0.00 0.00 0.00 26 1016.9
20260503004551 69 171 1.0 3.0 0.00 0.00 0.00 26 1016.8
20260503004012 69 188 1.0 6.0 0.00 0.00 0.00 26 1016.9
20260503003508 69 215 2.0 5.0 0.00 0.00 0.00 26 1016.9
20260503003010 69 160 2.0 6.0 0.00 0.00 0.00 26 1017.0
20260503002506 69 189 3.0 6.0 0.00 0.00 0.00 26 1017.0
20260503002007 69 192 2.0 5.0 0.00 0.00 0.00 25 1017.0
20260503001519 69 210 3.0 5.0 0.00 0.00 0.00 25 1017.0
20260503001009 69 315 2.0 5.0 0.00 0.00 0.00 25 1017.1
20260503000509 70 205 1.0 5.0 0.00 0.00 0.00 26 1017.2
20260503000026 70 182 3.0 5.0 0.00 0.00 0.00 26 1017.2
20260502235509 70 221 1.0 5.0 0.00 0.00 0.00 25 1017.3
20260502235013 70 188 2.0 7.0 0.00 0.00 0.00 25 1017.4
20260502234527 70 192 4.0 7.0 0.00 0.00 0.00 1017.3
20260502234008 70 226 2.0 7.0 0.00 0.00 0.00 25 1017.4
20260502233507 71 269 2.0 7.0 0.00 0.00 0.00 25 1017.3
20260502233019 71 267 2.0 8.0 0.00 0.00 0.00 24 1017.4
20260502232507 71 294 2.0 7.0 0.00 0.00 0.00 24 1017.4
20260502232007 72 350 3.0 18.0 0.00 0.00 0.00 23 1017.5
20260502231521 72 336 5.0 18.0 0.00 0.00 0.00 23 1017.5
20260502231008 73 246 4.0 8.0 0.00 0.00 0.00 23 1017.6
20260502230510 73 275 1.0 8.0 0.00 0.00 0.00 23 1017.5
20260502230026 73 352 2.0 8.0 0.00 0.00 0.00 23 1017.6
20260502225507 73 328 3.0 9.0 0.00 0.00 0.00 22 1017.6
20260502225003 73 221 1.0 11.0 0.00 0.00 0.00 22 1017.6
20260502224512 73 275 7.0 11.0 0.00 0.00 0.00 22 1017.6
20260502224007 73 323 7.0 11.0 0.00 0.00 0.00 23 1017.6
20260502223507 73 304 5.0 13.0 0.00 0.00 0.00 23 1017.6
20260502223020 73 324 9.0 13.0 0.00 0.00 0.00 23 1017.7
20260502222508 72 302 4.0 8.0 0.00 0.00 0.00 23 1017.7
20260502222005 73 38 2.0 5.0 0.00 0.00 0.00 22 1017.8
20260502221525 73 269 0.0 12.0 0.00 0.00 0.00 22 1017.9
20260502221008 73 281 4.0 12.0 0.00 0.00 0.00 23 1018.0
20260502220510 73 299 8.0 12.0 0.00 0.00 0.00 23 1018.0
20260502220009 72 337 2.0 6.0 0.00 0.00 0.00 22 1018.1
20260502215505 72 313 3.0 15.0 0.00 0.00 0.00 23 1018.2
20260502215005 71 329 3.0 15.0 0.00 0.00 0.00 22 1018.2
20260502214517 71 352 9.0 14.0 0.00 0.00 0.00 22 1018.2
20260502214007 72 29 5.0 14.0 0.00 0.00 0.00 22 1018.3
20260502213509 72 360 8.0 14.0 0.00 0.00 0.00 23 1018.4
20260502213022 72 287 5.0 14.0 0.00 0.00 0.00 23 1018.5
20260502212511 72 304 9.0 15.0 0.00 0.00 0.00 23 1018.6
20260502212009 72 252 4.0 15.0 0.00 0.00 0.00 24 1018.6
20260502211529 72 303 5.0 11.0 0.00 0.00 0.00 22 1018.6
20260502211010 71 253 2.0 14.0 0.00 0.00 0.00 23 1018.7
20260502210507 71 232 5.0 14.0 0.00 0.00 0.00 21 1018.9
20260502210025 71 312 9.0 14.0 0.00 0.00 0.00 22 1018.9
20260502205509 71 38 5.0 11.0 0.00 0.00 0.00 20 1019.0
20260502205006 71 306 7.0 11.0 0.00 0.00 0.00 21 1019.2
20260502204518 71 336 6.0 13.0 0.00 0.00 0.00 21 1019.3
20260502204008 71 40 3.0 13.0 0.00 0.00 0.00 20 1019.4
20260502203506 71 306 7.0 13.0 0.00 0.00 0.00 20 1019.5
20260502203022 71 294 5.0 13.0 0.00 0.00 0.00 21 1019.6
20260502202510 71 18 6.0 13.0 0.00 0.00 0.00 20 1019.7
20260502202009 70 243 3.0 9.0 0.00 0.00 0.00 24 1019.7
20260502201525 70 344 4.0 10.0 0.00 0.00 0.00 23 1019.8
20260502201010 70 286 6.0 11.0 0.00 0.00 0.00 22 1019.9
20260502200506 70 326 7.0 14.0 0.00 0.00 0.00 21 1019.9
20260502200014 70 309 7.0 14.0 0.00 0.00 0.00 24 1019.9
20260502195509 69 340 3.0 13.0 0.00 0.00 0.00 23 1019.9
20260502195006 69 312 3.0 13.0 0.00 0.00 0.00 22 1020.0
20260502194521 68 302 7.0 12.0 0.00 0.00 0.00 25 1020.1
20260502194010 68 255 1.0 5.0 0.00 0.00 0.00 25 1020.2
20260502193512 69 148 3.0 5.0 0.00 0.00 0.00 24 1020.2
20260502193006 69 91 2.0 8.0 0.00 0.00 0.00 23 1020.3
20260502192505 69 76 4.0 8.0 0.00 0.00 0.00 26 1020.3
20260502192002 68 311 1.0 9.0 0.00 0.00 0.00 26 1020.5
20260502191511 68 319 1.0 9.0 0.00 0.00 0.00 29 1020.5
20260502191007 68 248 5.0 9.0 0.00 0.00 0.00 30 1020.6
20260502190507 68 285 1.0 9.0 0.00 0.00 0.00 31 1020.7
20260502190022 67 209 3.0 7.0 0.00 0.00 0.00 31 1020.7
20260502185508 66 247 2.0 7.0 0.00 0.00 0.00 29 1020.8
20260502185006 66 213 4.0 7.0 0.00 0.00 0.00 29 1020.8
20260502184525 66 218 3.0 7.0 0.00 0.00 0.00 31 1020.9
20260502184014 66 163 4.0 7.0 0.00 0.00 0.00 30 1021.0
20260502183511 66 171 3.0 7.0 0.00 0.00 0.00 30 1021.1
20260502183004 66 202 2.0 7.0 0.00 0.00 0.00 30 1021.1
20260502182503 66 142 4.0 9.0 0.00 0.00 0.00 29 1021.2
20260502182011 66 189 5.0 9.0 0.00 0.00 0.00 30 1021.3
20260502181512 65 286 3.0 6.0 0.00 0.00 0.00 32 1021.4
20260502181006 64 150 0.0 6.0 0.00 0.00 0.00 33 1021.5
20260502180506 64 351 3.0 8.0 0.00 0.00 0.00 29 1021.6
20260502170506 63 97 3.0 6.0 0.00 0.00 0.00 30 1022.4
20260502164003 63 64 1.0 3.0 0.00 0.00 0.00 31 1022.5
20260502163503 63 53 1.0 8.0 0.00 0.00 0.00 35 1022.6
20260502163017 62 165 1.0 8.0 0.00 0.00 0.00 34 1022.7
20260502162506 62 153 1.0 2.0 0.00 0.00 0.00 35 1022.7
20260502162011 62 182 1.0 7.0 0.00 0.00 0.00 34 1022.6
20260502161517 61 64 1.0 7.0 0.00 0.00 0.00 36 1022.6
20260502161006 60 52 2.0 8.0 0.00 0.00 0.00 35 1022.6
20260502160507 60 150 4.0 9.0 0.00 0.00 0.00 33 1022.6
20260502152007 58 84 2.0 7.0 0.00 0.00 0.00 36 1022.9
20260502151522 58 71 3.0 8.0 0.00 0.00 0.00 35 1022.9
20260502151008 57 95 4.0 8.0 0.00 0.00 0.00 37 1022.9
20260502150509 56 104 2.0 6.0 0.00 0.00 0.00 40 1022.8
20260502130505 46 78 1.0 6.0 0.00 0.00 0.00 60 1022.4
20260502123512 42 60 2.0 6.0 0.00 0.00 0.00 68 1022.0
20260502123023 41 54 3.0 5.0 0.00 0.00 0.00 70 1022.0
20260502122510 41 40 2.0 6.0 0.00 0.00 0.00 71 1021.9
20260502122010 40 62 4.0 6.0 0.00 0.00 0.00 71 1021.8
20260502121527 40 30 3.0 5.0 0.00 0.00 0.00 72 1021.7
20260502121003 41 42 3.0 5.0 0.00 0.00 0.00 72 1021.7
20260502120503 41 34 3.0 6.0 0.00 0.00 0.00 72 1021.5
20260502115505 41 45 3.0 6.0 0.00 0.00 0.00 71 1021.5
20260502115008 41 49 4.0 6.0 0.00 0.00 0.00 71 1021.4
20260502114528 41 58 3.0 5.0 0.00 0.00 0.00 71 1021.4
20260502114007 41 42 3.0 5.0 0.00 0.00 0.00 71 1021.4
20260502113507 41 51 3.0 5.0 0.00 0.00 0.00 71 1021.4
20260502113025 41 51 2.0 5.0 0.00 0.00 0.00 71 1021.3
20260502112506 41 61 2.0 5.0 0.00 0.00 0.00 72 1021.2
20260502112008 41 84 3.0 5.0 0.00 0.00 0.00 72 1021.1
20260502111526 42 67 2.0 5.0 0.00 0.00 0.00 72 1021.2
20260502111003 42 58 3.0 6.0 0.00 0.00 0.00 72 1021.2
20260502110504 42 55 2.0 9.0 0.00 0.00 0.00 73 1021.1
20260502110018 42 42 4.0 9.0 0.00 0.00 0.00 73 1021.2
20260502105507 42 53 4.0 8.0 0.00 0.00 0.00 73 1021.1
20260502105006 42 53 3.0 8.0 0.00 0.00 0.00 74 1021.1
20260502104523 42 62 3.0 6.0 0.00 0.00 0.00 74 1021.1
20260502104009 42 49 3.0 5.0 0.00 0.00 0.00 74 1021.1
20260502103514 43 53 3.0 5.0 0.00 0.00 0.00 74 1021.1
20260502103023 43 62 2.0 5.0 0.00 0.00 0.00 73 1020.9
20260502102508 43 67 3.0 5.0 0.00 0.00 0.00 73 1020.9
20260502102007 43 44 3.0 6.0 0.00 0.00 0.00 73 1020.9
20260502101511 44 22 3.0 6.0 0.00 0.00 0.00 72 1020.9
20260502101010 44 57 3.0 6.0 0.00 0.00 0.00 71 1020.9
20260502100505 44 44 3.0 6.0 0.00 0.00 0.00 71 1020.8
20260502091512 44 81 3.0 8.0 0.00 0.00 0.00 72 1020.5
20260502091010 44 69 3.0 8.0 0.00 0.00 0.00 72 1020.5
20260502090507 45 63 3.0 7.0 0.00 0.00 0.00 72 1020.4
20260502071516 45 34 2.0 5.0 0.00 0.00 0.00 83 1020.5
20260502071007 46 40 2.0 5.0 0.00 0.00 0.00 83 1020.5
20260502070507 46 13 2.0 4.0 0.00 0.00 0.00 83 1020.6
20260502070024 46 329 0.0 3.0 0.00 0.00 0.00 82 1020.4
20260502065507 46 293 0.0 0.0 0.00 0.00 0.00 82 1020.3
20260502065011 46 293 0.0 0.0 0.00 0.00 0.00 82 1020.3
20260502064541 46 293 0.0 0.0 0.00 0.00 0.00 82 1020.2
20260502064011 46 293 0.0 0.0 0.00 0.00 0.00 82 1020.2
20260502063510 46 293 0.0 0.0 0.00 0.00 0.00 82 1020.1
20260502063028 46 293 0.0 0.0 0.00 0.00 0.00 81 1020.1
20260502062511 47 293 0.0 0.0 0.00 0.00 0.00 81 1020.0
20260502062009 47 293 0.0 0.0 0.00 0.00 0.00 81 1020.0
20260502061519 47 293 0.0 0.0 0.00 0.00 0.00 81 1019.8
20260502061009 47 293 0.0 0.0 0.00 0.00 0.00 81 1020.1
20260502060507 47 293 0.0 0.0 0.00 0.00 0.00 81 1020.1
20260502060035 47 293 0.0 0.0 0.00 0.00 0.00 80 1020.0
20260502055507 47 293 0.0 0.0 0.00 0.00 0.00 80 1019.9
20260502055007 47 293 0.0 0.0 0.00 0.00 0.00 79 1019.9
20260502054529 47 293 0.0 0.0 0.00 0.00 0.00 79 1019.9
20260502054009 47 293 0.0 0.0 0.00 0.00 0.00 78 1019.7
20260502053513 47 293 0.0 0.0 0.00 0.00 0.00 78 1019.8
20260502053029 48 293 0.0 0.0 0.00 0.00 0.00 77 1019.9
20260502052510 48 293 0.0 0.0 0.00 0.00 0.00 77 1019.9
20260502052007 48 293 0.0 0.0 0.00 0.00 0.00 77 1020.1
20260502051526 48 293 0.0 0.0 0.00 0.00 0.00 77 1020.1
20260502051011 48 293 0.0 0.0 0.00 0.00 0.00 77 1020.2
20260502050511 48 293 0.0 0.0 0.00 0.00 0.00 76 1020.0
20260502050026 48 130 0.0 0.0 0.00 0.00 0.00 76 1019.9
20260502045508 49 130 0.0 0.0 0.00 0.00 0.00 76 1019.9
20260502045009 49 130 0.0 0.0 0.00 0.00 0.00 76 1020.0
20260502044529 49 130 0.0 0.0 0.00 0.00 0.00 76 1020.0
20260502044008 49 130 0.0 0.0 0.00 0.00 0.00 76 1019.9
20260502043510 49 130 0.0 0.0 0.00 0.00 0.00 76 1020.0
20260502043011 49 130 0.0 0.0 0.00 0.00 0.00 76 1020.0
20260502042506 50 130 0.0 0.0 0.00 0.00 0.00 76 1019.9
20260502042004 50 130 0.0 0.0 0.00 0.00 0.00 75 1019.9
20260502041515 50 130 0.0 0.0 0.00 0.00 0.00 75 1019.8
20260502041003 50 130 0.0 0.0 0.00 0.00 0.00 75 1019.8
20260502040504 50 130 0.0 0.0 0.00 0.00 0.00 74 1019.7
20260502040008 51 130 0.0 0.0 0.00 0.00 0.00 74 1019.6
20260502035503 51 130 0.0 0.0 0.00 0.00 0.00 73 1019.4
20260502035006 51 130 0.0 0.0 0.00 0.00 0.00 73 1019.3
20260502034517 51 130 0.0 0.0 0.00 0.00 0.00 72 1019.2
20260502034008 51 130 0.0 0.0 0.00 0.00 0.00 72 1019.2
20260502033507 52 130 0.0 0.0 0.00 0.00 0.00 72 1019.3
20260502033025 52 124 0.0 0.0 0.00 0.00 0.00 71 1019.3
20260502032504 52 80 0.0 0.0 0.00 0.00 0.00 70 1019.3
20260502032004 52 81 0.0 0.0 0.00 0.00 0.00 70 1019.3
20260502031511 52 74 0.0 0.0 0.00 0.00 0.00 69 1019.1
20260502031003 53 87 0.0 0.0 0.00 0.00 0.00 69 1019.1
20260502030504 53 81 0.0 0.0 0.00 0.00 0.00 69 1018.9
20260502030008 53 85 0.0 5.0 0.00 0.00 0.00 68 1018.8
20260502025504 53 77 0.0 5.0 0.00 0.00 0.00 68 1018.8
20260502025006 53 80 0.0 2.0 0.00 0.00 0.00 67 1018.6
20260502024515 54 76 0.0 0.0 0.00 0.00 0.00 66 1018.6
20260502024005 54 76 0.0 0.0 0.00 0.00 0.00 66 1018.6
20260502023506 54 78 0.0 5.0 0.00 0.00 0.00 65 1018.6
20260502023014 54 91 0.0 5.0 0.00 0.00 0.00 65 1018.5
20260502022507 54 61 0.0 3.0 0.00 0.00 0.00 64 1018.4
20260502022008 55 70 0.0 4.0 0.00 0.00 0.00 64 1018.3